User: anonymous   Login
Location: Plymouth
(43.7570°N, 71.6890°W)
Time: 02:35:21
(UTC-04:00)
Language:

Cosmos 2016 Rocket - Orbit

View from above orbital plane
View from above orbital plane
View from above satellite
View from above satellite

Ground track
Ground track

The orbit data is extracted from the following two-line orbital elements,

1 19922U 89028B   17232.53600893  .00000007  00000-0 -88132-5 0  9994
2 19922  82.9600  19.0444 0037754  66.4719 294.0397 13.77196740426080
Epoch (UTC): 20 August 2017 12:51:51
Eccentricity: 0.0037754
inclination: 82.9600°
perigee height: 946 km
apogee height: 1001 km
right ascension of ascending node: 19.0444°
argument of perigee: 66.4719°
revolutions per day: 13.77196740
mean anomaly at epoch: 294.0397°
orbit number at epoch: 42608

The dashed part of the orbit path shows where the satellite is in the earth's shadow,  

DLR